GFSCGP_925_rhum_108.txt.gz
RH
37 49 44 29 30 46 45 32 33 26 21 28 29 24 52 53 27 20 24 25 21 20 17 14 11 12 12 11 28 67 83 91 92 92 95 90 86 81 79 80 85 85 90 97
55 56 48 48 48 34 35 52 58 29 21 24 56 70 58 55 51 44 36 39 33 23 19 16 17 24 24 24 45 63 77 91 89 90 92 93 94 90 84 87 91 86 81 89
64 47 36 48 53 58 28 29 55 56 27 24 53 57 52 39 42 40 38 35 32 29 44 49 56 63 63 66 72 86 94 98 91 87 98 92 98 94 93 91 90 92 87 83
49 38 39 50 55 56 56 33 60 65 44 41 66 72 67 50 49 39 35 36 50 54 57 60 65 68 70 70 65 71 95 99 99 94 100 93 94 94 88 87 87 92 92 89
57 48 53 60 52 46 49 32 57 49 36 45 62 99 76 57 57 48 42 59 60 62 64 67 66 65 71 73 71 67 65 88 97 97 99 93 88 88 85 84 85 81 86 87
65 50 59 50 32 31 39 58 54 64 52 56 40 94 66 56 48 64 67 67 66 68 68 66 65 68 73 76 80 78 75 64 64 92 97 94 90 87 86 89 87 77 81 82
54 60 36 38 46 40 52 68 89 86 94 76 56 90 55 72 70 69 75 74 72 70 73 74 75 75 75 76 83 84 88 88 74 66 88 99 91 87 83 89 91 96 97 97
63 65 42 54 53 45 70 60 70 94 91 78 57 79 75 88 85 80 73 75 76 78 79 80 77 77 79 81 86 90 91 92 94 79 67 96 95 94 89 87 91 94 94 90
98 72 42 38 37 49 56 67 50 68 87 81 70 76 86 80 89 95 91 85 85 83 80 80 78 80 81 85 89 93 94 95 97 100 66 69 97 94 89 85 87 86 89 90
96 97 54 55 55 60 59 58 64 87 78 87 77 81 100 99 96 95 97 88 84 82 80 79 78 81 84 88 91 96 95 97 99 100 87 70 98 94 87 88 87 88 89 90
89 99 75 57 71 79 61 76 77 67 80 96 96 99 99 100 97 100 100 96 85 84 83 82 79 82 85 90 92 95 98 99 99 100 100 99 99 98 90 85 88 90 89 87
72 99 94 74 66 75 70 72 66 82 85 96 98 98 100 98 96 94 98 88 83 83 85 85 84 87 88 90 94 96 98 99 100 100 100 100 94 95 96 88 93 94 89 87
79 87 88 72 79 80 83 62 64 88 95 99 97 98 96 95 91 89 95 88 84 85 84 86 87 88 92 95 93 97 98 100 100 100 100 100 100 99 98 94 97 95 92 92
80 86 89 93 79 87 100 87 88 92 99 97 98 99 97 95 95 95 94 89 85 82 83 84 88 92 94 96 98 97 99 100 100 100 100 100 100 100 100 100 99 93 93 88
85 98 96 100 99 96 98 100 99 100 100 92 100 98 97 96 96 96 92 80 81 81 81 88 93 94 97 97 98 99 98 100 100 100 100 100 100 100 99 100 99 100 100 94
82 99 100 99 97 85 97 97 92 100 100 100 95 98 100 99 92 92 89 82 80 79 86 86 92 93 96 98 98 99 100 100 100 99 100 100 100 100 100 98 100 100 100 100
82 90 97 96 89 91 86 98 94 94 92 90 95 99 96 94 93 96 96 95 87 78 87 95 94 96 98 99 100 100 100 100 99 100 100 100 100 100 100 99 99 100 100 100
81 65 81 86 93 88 99 96 83 88 88 81 92 93 89 90 94 94 97 96 94 76 81 88 90 94 97 100 99 100 100 99 99 100 100 100 100 99 100 97 99 98 100 100
59 70 96 97 93 97 76 77 92 92 98 94 91 95 92 95 85 94 94 98 98 78 78 79 81 86 90 93 99 98 100 100 100 100 100 99 100 100 97 100 99 99 99 97
59 68 97 98 88 95 90 77 66 69 92 98 89 90 83 92 91 94 96 98 88 72 74 76 81 82 88 95 93 96 96 100 100 100 100 98 98 98 100 98 99 98 100 100
82 88 89 92 88 84 90 80 66 80 98 100 93 93 87 91 95 96 92 88 81 67 72 78 83 86 90 94 97 97 92 98 98 97 96 98 97 98 98 98 100 98 98 96
91 97 94 86 82 88 87 78 82 98 100 99 96 84 88 87 87 94 89 86 72 70 74 79 84 89 94 98 99 99 99 87 88 94 96 98 98 97 97 97 97 97 96 98
94 88 93 91 95 97 99 100 100 99 99 99 92 78 74 81 88 91 87 87 78 77 80 83 83 87 96 100 100 99 100 97 84 84 93 97 96 96 97 96 97 96 96 97
94 79 94 92 97 95 98 97 95 92 84 72 65 80 81 86 81 81 79 80 78 81 86 87 86 85 94 97 98 99 100 99 100 90 83 87 98 100 100 100 100 100 100 99
92 82 82 96 94 92 91 94 81 71 62 61 64 66 63 70 73 72 75 78 82 85 91 92 92 93 96 99 96 97 100 95 98 99 100 89 89 96 100 100 100 100 100 100
83 97 98 93 98 91 95 97 77 73 73 67 69 76 73 74 79 80 86 86 88 91 92 93 93 96 95 96 96 94 94 94 94 100 99 100 96 85 91 96 100 100 99 99

GFSCGP_925_rhum_111.txt.gz
RH
36 59 68 50 38 33 33 34 37 45 54 42 29 26 23 23 28 36 45 22 26 21 20 18 16 20 20 26 66 74 85 88 96 98 100 100 99 91 92 88 86 87 87 91
57 58 38 42 50 53 51 54 46 36 31 55 54 36 25 24 43 33 37 40 35 34 34 56 70 69 77 71 26 66 90 89 90 96 91 93 99 100 100 99 89 88 87 91
58 42 33 41 46 45 54 68 61 57 30 42 58 67 31 25 36 39 44 44 45 53 71 64 65 74 75 78 82 87 85 96 99 99 99 94 98 99 100 98 91 91 92 90
55 44 43 44 47 46 73 49 56 48 58 71 45 67 32 35 38 46 40 66 73 71 69 67 70 76 79 81 76 87 100 97 100 96 98 97 94 92 96 97 100 99 93 91
68 54 52 58 50 49 56 50 55 48 46 84 74 77 48 66 66 74 77 75 75 73 74 75 74 76 80 83 84 80 84 92 99 98 97 95 99 91 90 94 99 100 96 94
67 52 60 60 49 49 43 53 57 58 67 94 61 56 53 58 76 87 85 82 80 80 79 77 75 76 82 87 89 86 87 81 76 94 100 96 97 96 88 91 95 96 96 97
69 61 63 56 64 46 50 65 79 94 97 81 45 61 44 90 88 88 92 87 85 83 88 86 84 82 83 88 92 90 91 91 90 76 82 98 99 95 91 90 91 98 100 97
94 64 43 52 42 45 61 64 80 94 94 75 59 86 92 93 88 87 82 88 83 83 82 84 81 82 86 88 93 96 94 92 97 99 90 76 95 100 95 92 92 91 92 90
92 86 44 48 45 46 56 76 52 87 79 97 83 100 96 96 96 98 99 92 93 89 85 83 80 81 85 89 92 96 96 94 97 98 100 99 75 98 98 95 92 88 85 86
94 99 59 62 57 54 62 62 83 95 96 88 79 97 98 97 100 100 100 100 95 89 89 84 82 84 85 89 92 95 97 96 99 99 99 100 100 80 100 96 98 96 90 90
79 100 72 59 77 86 77 75 78 76 84 97 95 98 100 100 100 100 100 100 96 93 92 93 86 86 88 91 93 96 98 98 100 100 100 100 100 83 100 96 98 95 93 94
72 97 96 71 68 75 82 72 72 86 86 94 96 98 100 100 100 100 100 100 97 91 82 86 87 89 90 94 95 96 98 99 100 100 100 99 100 100 100 97 98 100 100 99
84 79 93 67 73 81 94 81 69 87 92 94 97 98 100 100 99 99 98 95 88 82 83 83 84 89 92 93 96 96 98 100 100 100 100 100 100 100 100 100 99 100 100 100
80 88 96 96 89 97 99 94 83 97 99 94 93 98 99 99 98 100 93 84 78 81 83 87 87 87 93 94 95 97 98 99 100 99 100 100 100 100 100 100 100 100 100 100
88 99 100 100 100 90 95 98 99 97 95 92 98 96 97 97 97 100 83 76 79 82 83 89 90 89 91 94 95 96 98 99 99 100 100 100 100 100 99 99 99 99 100 100
86 97 100 99 92 87 95 95 93 98 99 97 89 95 97 97 96 92 90 80 81 83 85 88 88 88 93 94 95 98 99 99 99 99 100 100 100 100 96 99 96 98 100 99
98 100 99 96 80 85 79 98 96 90 90 92 89 95 96 94 91 96 93 86 83 85 89 95 95 94 97 99 98 100 100 100 100 100 100 100 100 100 100 98 94 95 98 98
93 92 100 96 95 90 99 96 95 84 88 90 86 92 87 90 95 94 96 91 85 85 88 92 94 96 98 99 97 100 100 100 100 100 100 100 100 100 100 100 98 99 97 98
69 88 99 97 89 96 92 90 92 92 96 94 94 89 89 94 88 91 94 95 82 84 82 87 87 93 96 99 98 94 100 100 100 100 100 100 100 100 100 100 100 100 98 96
69 81 99 97 88 95 93 81 72 74 95 95 93 92 93 92 90 96 96 91 80 78 80 85 90 91 96 99 99 92 94 99 100 100 100 100 100 100 100 99 99 100 100 100
83 90 95 96 88 91 88 94 82 89 98 98 87 89 91 92 98 97 84 86 76 78 81 85 91 96 100 100 98 96 94 94 92 94 96 96 99 100 100 99 98 98 98 96
87 94 92 85 81 92 94 82 81 98 99 91 86 78 84 89 92 91 91 92 85 83 83 84 90 97 99 100 98 98 99 94 82 87 94 97 96 97 96 98 97 100 100 97
93 91 90 94 95 98 100 100 99 96 96 99 84 72 74 82 90 92 95 93 90 89 89 87 88 93 98 100 100 100 100 100 95 83 87 94 96 97 99 98 95 98 95 100
94 79 94 92 96 94 93 90 91 90 80 75 85 84 83 87 87 91 89 89 90 93 91 89 91 94 96 100 100 100 100 98 98 97 86 84 95 100 100 100 100 100 100 100
89 84 88 95 93 87 92 90 80 70 67 72 70 71 73 75 80 80 85 88 88 90 92 90 92 93 99 97 97 100 99 99 100 99 100 88 83 90 96 100 100 100 100 100
88 97 97 98 90 94 95 90 73 78 77 74 78 82 81 80 84 89 89 92 92 92 92 92 88 92 96 94 96 94 98 99 98 99 100 100 97 84 88 92 94 99 100 100

GFSCGP_925_rhum_117.txt.gz
RH
36 38 40 36 36 34 37 42 41 34 29 38 36 31 29 31 31 29 25 25 24 20 17 15 41 64 62 39 54 74 88 90 93 94 97 97 98 99 100 95 98 89 87 83
50 54 39 40 40 43 43 48 48 40 33 33 34 39 35 36 36 32 28 23 23 23 21 20 64 73 78 78 78 80 88 93 95 89 92 93 98 98 100 100 100 97 84 81
59 47 40 43 46 50 47 51 47 47 36 38 45 46 34 28 27 27 26 38 37 54 45 64 68 78 82 83 83 86 96 94 99 95 97 98 98 98 100 100 100 99 90 80
62 49 47 49 58 51 63 42 42 46 54 60 46 74 42 40 49 74 76 79 82 81 75 73 74 78 84 87 88 88 100 99 99 99 99 99 94 96 97 97 100 97 99 94
51 59 60 64 59 46 39 42 47 51 59 64 48 81 45 64 93 100 98 91 88 87 85 82 79 83 85 87 88 89 94 100 100 100 100 100 97 94 94 99 100 98 99 100
61 50 55 59 54 49 44 55 52 55 68 81 54 67 56 95 100 98 100 96 94 90 87 83 80 82 86 88 89 89 88 92 99 100 100 99 99 98 98 99 100 100 100 100
60 57 55 55 57 48 57 55 69 66 73 65 78 90 95 100 98 100 99 99 97 94 94 92 89 86 88 90 91 87 89 92 96 97 99 100 100 100 97 98 98 99 99 100
83 57 50 48 52 57 51 52 73 89 67 73 84 90 92 100 87 94 96 100 96 96 92 95 93 90 90 93 94 94 91 92 95 99 99 96 96 100 100 100 98 98 99 100
87 82 53 50 52 49 58 66 51 93 78 90 92 94 100 75 86 88 97 95 97 100 96 94 91 92 92 95 97 96 96 96 98 100 100 99 99 97 98 99 100 99 100 100
69 98 54 54 51 54 55 54 96 90 90 78 90 86 92 91 96 94 94 96 96 97 96 96 91 90 91 94 96 98 96 97 99 100 100 100 99 100 99 98 94 100 100 100
57 94 61 61 58 56 58 73 97 98 82 90 87 92 100 99 99 96 97 97 97 96 97 97 97 90 91 92 95 98 98 98 99 100 100 100 100 99 100 100 100 99 100 100
64 96 85 61 46 61 63 70 86 92 83 90 91 94 100 100 99 95 96 97 97 97 98 98 100 94 92 93 95 97 98 99 100 100 100 100 100 100 100 100 100 100 100 100
84 89 86 54 62 50 70 70 84 93 98 96 93 96 98 94 95 95 96 96 97 97 95 97 97 97 95 96 96 97 98 99 99 100 100 100 100 100 100 100 100 100 100 100
72 90 95 87 93 95 88 87 96 99 95 90 89 90 92 94 94 94 93 94 95 96 95 96 94 95 96 96 98 98 99 99 97 98 100 99 100 100 100 100 100 99 100 100
85 98 98 99 98 83 93 94 87 87 78 75 93 88 92 94 94 94 95 94 91 92 85 88 93 93 89 91 94 96 98 99 99 99 99 100 100 100 100 100 100 100 100 100
87 95 100 96 100 96 94 95 77 90 85 90 84 90 94 94 94 93 92 86 80 80 84 84 82 85 88 89 93 97 99 99 100 99 100 100 99 100 100 100 100 100 100 100
94 95 94 86 96 83 89 96 95 87 87 82 78 90 92 91 90 91 90 82 82 80 84 89 91 92 94 93 91 97 99 100 100 100 100 100 100 100 100 100 100 100 100 100
94 88 91 86 96 93 97 91 90 82 89 89 84 87 80 84 89 89 87 84 83 80 82 87 93 95 99 99 94 90 94 99 100 100 100 100 100 100 100 100 100 100 100 100
79 94 91 95 89 95 95 91 89 87 92 89 91 90 85 88 75 86 87 80 82 82 84 88 91 97 97 100 98 96 93 96 100 100 100 100 100 100 100 100 100 100 100 100
85 81 93 92 92 92 92 92 89 81 82 84 79 85 78 91 79 86 87 84 80 80 81 85 87 88 93 96 93 96 95 94 99 100 100 100 100 100 100 100 100 100 100 100
74 80 87 89 90 89 86 96 97 90 90 84 78 78 72 83 85 88 84 86 83 79 81 82 84 88 93 94 88 91 96 97 94 96 100 100 100 100 100 100 100 99 100 100
77 88 86 88 91 92 91 97 83 91 92 82 79 78 82 85 88 89 88 92 83 78 79 81 80 83 90 91 89 92 98 98 89 86 92 99 100 100 100 100 100 100 100 99
86 80 84 91 91 94 99 96 98 91 87 85 80 74 74 84 91 91 93 90 85 77 77 80 80 80 86 91 97 96 100 96 93 87 82 87 92 96 95 96 96 94 96 97
88 83 90 94 96 93 92 95 84 86 91 79 72 73 73 83 85 88 82 80 77 76 74 78 78 80 84 85 87 96 100 93 85 87 84 78 81 82 90 91 88 91 95 91
88 88 85 93 94 89 89 89 78 75 74 74 72 71 72 73 78 74 72 73 72 67 70 71 75 77 81 82 88 94 99 92 81 84 86 86 83 82 79 89 100 99 100 99
86 90 91 90 86 84 91 90 76 76 77 72 73 78 80 76 74 75 78 82 79 66 67 68 66 68 76 79 91 98 100 99 87 80 81 92 90 88 82 76 73 90 100 100

GFSCGP_925_rhum_120.txt.gz
RH
28 27 20 20 24 26 26 27 26 21 18 24 24 21 18 17 18 20 20 19 18 18 15 13 14 14 14 16 33 29 22 41 69 73 68 64 64 66 65 66 70 84 99 99
35 30 22 28 29 33 32 33 30 22 20 23 23 25 18 19 28 42 46 44 42 38 26 18 15 16 39 48 52 44 33 33 63 70 63 58 62 64 64 65 67 77 97 98
38 26 31 34 34 38 35 32 29 28 25 25 26 24 22 28 37 41 49 57 59 59 55 46 44 49 58 58 62 58 56 35 57 68 67 64 67 64 68 69 69 83 94 99
39 32 35 37 39 37 43 23 24 27 36 42 30 50 29 37 39 45 54 72 93 93 85 67 68 72 74 77 80 73 80 90 66 80 74 69 68 70 78 70 72 87 94 86
33 37 40 44 37 33 33 30 31 34 42 43 32 45 29 43 59 61 64 72 95 95 95 86 80 80 83 86 86 86 92 100 98 89 85 82 70 68 73 76 78 91 99 91
42 32 42 38 38 38 34 41 40 39 42 53 40 59 45 77 90 74 87 71 89 95 96 94 90 89 90 94 93 89 91 100 100 100 98 93 88 80 78 88 88 98 99 100
34 38 38 41 40 36 42 47 49 51 60 33 39 59 88 93 92 94 98 93 87 94 96 96 96 91 94 96 97 92 90 93 99 100 100 100 98 95 89 87 89 98 99 100
45 40 39 39 42 46 44 48 54 82 58 52 43 64 84 65 74 84 82 99 90 90 96 96 100 93 95 97 98 98 94 94 96 100 100 100 100 100 100 98 94 88 98 100
58 66 34 36 35 42 44 51 42 72 59 80 67 80 95 51 64 78 92 88 96 93 96 97 98 92 95 97 98 100 98 97 98 99 99 100 100 99 99 99 99 99 98 98
52 94 39 41 39 36 46 43 64 85 88 76 75 86 86 88 88 95 92 96 96 95 94 93 96 94 93 96 99 100 98 98 99 99 99 100 100 100 99 100 100 98 99 100
44 90 46 41 41 42 45 59 64 77 62 79 72 92 100 100 97 94 95 96 98 98 97 95 94 96 92 93 95 99 97 97 98 99 100 100 100 100 99 99 100 99 99 98
54 71 66 46 36 36 36 53 81 90 72 78 90 95 100 85 92 91 95 96 98 97 98 96 96 96 90 92 93 95 98 98 99 99 100 100 100 100 100 100 99 99 100 100
62 66 65 42 52 39 52 54 62 79 100 92 92 94 77 77 86 92 94 95 97 97 96 96 95 96 96 94 95 94 96 96 96 96 98 99 100 100 100 100 100 100 100 100
64 63 82 68 73 73 80 71 65 99 99 91 86 90 84 85 87 88 92 92 95 95 96 96 95 96 96 97 98 96 94 94 93 94 94 98 99 100 100 100 100 100 100 100
58 86 77 75 86 82 76 91 85 83 88 90 91 85 89 89 88 91 94 92 88 85 84 90 94 96 96 95 95 90 94 93 93 94 95 94 98 99 100 100 100 100 99 100
66 92 100 95 91 92 85 90 73 76 82 84 75 88 88 84 87 89 88 79 71 72 77 78 79 85 92 94 90 91 93 95 91 92 95 95 93 97 100 100 100 100 100 100
76 87 85 70 89 68 79 95 93 83 69 79 82 82 82 85 83 87 79 71 72 72 76 88 90 90 93 94 88 91 92 95 96 95 95 94 94 95 98 100 100 100 100 100
77 79 82 66 90 92 99 71 62 70 69 66 66 74 71 77 82 82 77 76 76 74 76 82 88 91 93 92 91 85 88 92 98 100 99 100 97 95 98 99 100 100 100 100
56 78 72 80 87 91 89 83 76 77 82 72 77 75 75 79 70 86 78 70 74 73 71 70 73 82 84 90 91 89 92 94 97 100 100 100 100 100 100 100 100 100 100 100
63 72 77 70 84 84 79 76 83 79 84 68 68 74 75 83 83 83 79 78 70 64 65 65 65 67 70 74 81 90 92 92 94 97 100 100 99 100 100 100 100 100 99 98
75 69 74 74 74 79 76 91 99 92 93 67 61 59 58 71 75 81 72 78 69 60 63 61 61 63 66 67 69 81 84 87 85 86 91 94 96 97 97 99 98 97 96 95
53 66 72 70 79 88 78 100 95 87 69 65 61 63 72 78 80 81 82 80 67 57 58 59 58 62 64 65 66 74 80 72 72 71 75 81 85 91 94 94 94 94 94 93
72 63 67 77 83 89 100 99 93 64 72 66 62 59 64 76 85 84 84 79 66 54 55 58 58 60 61 62 64 68 77 66 66 64 64 65 68 71 74 80 85 84 87 86
72 61 77 84 94 92 94 95 90 72 70 62 58 61 64 74 76 76 68 61 53 49 51 55 55 56 59 64 67 68 68 60 56 58 57 60 61 60 64 69 73 84 90 86
69 68 72 93 94 93 94 94 87 78 68 65 58 59 59 58 58 54 53 53 48 47 48 46 46 50 54 62 69 72 70 63 54 54 57 62 59 59 55 60 80 80 96 98
67 70 83 93 91 96 92 95 91 73 65 61 61 61 59 56 56 58 60 59 50 47 46 44 43 45 46 54 72 82 81 74 67 58 60 67 65 64 61 58 56 80 80 97

GFSCGP_925_rhum_123.txt.gz
RH
20 20 16 12 17 18 19 21 19 15 13 17 16 14 13 13 23 30 30 31 33 37 35 37 36 29 18 13 14 14 15 19 26 53 78 75 65 66 64 53 53 90 96 97
23 25 15 18 20 23 24 26 23 16 13 15 17 19 15 15 28 28 31 34 39 49 51 49 51 51 38 46 39 34 33 38 39 30 72 73 62 58 57 51 52 66 96 96
24 16 21 20 21 25 23 26 25 21 16 16 19 19 16 19 23 30 31 36 40 51 61 70 68 68 63 62 65 55 52 41 42 43 56 69 60 53 50 48 52 64 83 98
24 19 24 22 25 25 32 20 20 22 26 31 20 39 20 29 34 40 40 45 51 53 56 69 84 88 78 78 80 78 70 56 51 72 80 66 59 48 48 47 51 59 71 96
22 26 26 28 26 26 29 26 30 31 35 35 28 32 24 36 56 55 53 56 56 58 61 67 77 91 95 89 90 92 87 81 88 97 90 64 66 50 51 51 52 56 70 78
27 20 26 27 27 29 29 34 30 30 30 43 27 31 36 71 76 68 66 64 62 70 72 62 71 86 97 98 97 98 94 94 100 99 92 60 68 56 52 55 58 62 80 77
26 27 24 30 33 24 32 33 44 37 52 43 26 31 72 51 53 63 75 79 64 67 77 78 80 95 98 98 98 99 96 96 100 99 100 98 81 69 64 73 69 79 92 88
23 38 29 28 29 30 33 33 43 57 48 42 30 48 85 44 48 55 57 78 67 73 81 91 98 98 98 100 100 100 99 100 99 100 100 100 99 99 96 84 89 94 91 96
35 40 24 27 26 28 35 36 37 61 44 65 52 74 62 48 58 68 75 72 82 88 94 98 96 98 98 100 100 100 99 100 100 100 100 100 100 100 96 99 85 98 100 100
40 77 28 27 29 29 35 28 54 64 88 69 46 89 84 88 89 91 94 92 94 88 91 96 95 97 98 99 100 100 100 99 100 100 100 100 100 100 100 99 98 100 99 99
37 80 37 30 34 30 35 47 54 54 51 76 70 92 84 95 95 93 95 99 98 97 98 96 96 97 98 97 98 97 96 96 98 99 99 100 100 100 100 98 98 99 100 99
38 57 58 32 26 28 29 40 44 85 62 90 99 96 79 74 74 82 93 100 99 95 99 98 96 97 96 96 98 99 100 99 100 98 98 98 100 99 100 99 100 100 100 100
51 58 58 43 43 36 42 39 45 55 64 87 93 95 64 64 71 79 93 96 99 98 96 97 95 95 96 96 98 98 100 100 100 100 95 97 99 100 100 100 100 99 99 100
60 53 61 60 59 53 65 58 54 68 99 98 83 89 78 80 82 77 80 92 96 98 97 95 96 96 97 97 98 98 97 94 95 97 94 96 98 99 100 100 100 100 100 99
52 77 70 60 53 62 71 81 70 71 71 83 87 84 84 82 83 87 83 69 67 79 80 89 95 96 96 97 97 99 92 93 89 90 90 92 92 95 99 99 100 100 100 100
50 90 98 90 63 66 95 85 69 69 71 76 66 84 73 68 68 77 71 61 62 66 70 77 81 82 91 85 86 87 89 93 92 91 91 89 90 93 97 100 100 100 100 100
67 73 84 64 59 62 90 91 82 63 52 63 68 72 66 69 71 80 74 66 67 67 69 82 86 86 91 91 87 87 86 92 97 97 95 93 92 92 95 96 99 100 100 100
71 73 63 60 71 84 91 55 51 54 54 51 58 64 57 63 70 72 69 68 69 66 64 68 83 84 85 85 87 89 89 86 94 98 98 97 96 95 98 99 99 99 100 100
43 68 70 66 55 90 83 62 56 56 67 57 59 59 60 62 65 83 69 65 63 60 56 53 55 62 66 77 81 83 90 88 91 98 100 100 99 98 98 100 99 99 97 99
50 59 79 58 66 74 88 61 57 55 74 56 57 62 63 62 88 79 72 72 60 50 50 50 51 52 54 57 68 73 78 85 87 90 96 95 98 97 98 96 98 98 97 94
73 67 78 66 61 74 64 68 75 86 89 59 53 54 62 76 78 74 67 73 58 48 48 48 49 50 50 52 56 64 60 64 69 70 73 79 83 91 91 91 91 92 92 92
54 56 62 57 61 68 68 96 96 78 63 59 56 58 67 72 74 77 76 75 53 44 46 46 48 50 52 50 50 55 54 50 52 55 59 62 63 70 78 85 87 89 90 90
56 44 60 67 83 74 94 98 78 72 75 63 58 55 61 73 82 80 81 72 49 42 43 44 45 46 50 52 52 53 53 46 46 47 49 50 53 51 55 60 69 78 82 85
57 48 73 74 74 74 91 100 94 88 79 59 52 55 59 69 67 68 59 48 40 38 38 39 40 41 45 50 53 56 57 51 45 46 49 51 51 48 46 56 56 66 75 75
62 56 65 88 82 82 95 100 96 93 68 52 49 49 50 48 46 44 43 40 39 38 37 35 36 36 37 44 53 60 61 58 54 49 51 57 55 55 51 55 72 71 92 82
54 69 76 90 78 88 89 100 96 93 72 55 52 51 47 46 47 47 47 42 38 38 37 36 38 40 41 45 53 62 67 66 66 59 58 60 59 58 58 58 58 77 84 89

GFSCGP_925_rhum_126.txt.gz
RH
18 22 20 15 13 15 16 14 15 14 12 13 15 14 11 10 20 28 28 30 32 33 34 37 45 54 59 61 63 62 65 61 33 19 35 63 79 73 75 76 83 91 85 79
20 24 16 13 15 16 17 20 20 16 13 13 14 14 12 13 27 30 33 36 38 40 39 42 48 57 66 70 70 71 70 69 68 60 41 47 67 76 69 74 72 82 90 89
21 17 16 18 18 15 18 20 20 21 16 15 16 17 12 28 32 34 36 40 43 46 49 50 50 56 63 69 76 79 79 77 76 72 62 50 51 76 73 71 66 75 94 98
18 15 16 17 20 17 24 17 18 22 27 34 20 41 23 24 38 44 46 50 53 52 52 53 57 57 62 69 78 88 84 84 83 80 78 76 86 90 74 71 63 69 93 90
21 21 22 21 17 17 26 22 26 27 31 33 31 33 47 38 57 53 53 56 56 56 60 62 62 68 68 73 83 95 94 92 92 93 90 94 91 85 86 68 58 60 94 96
24 17 20 21 19 22 23 28 29 28 28 46 29 48 87 78 60 59 60 63 60 61 63 66 70 78 82 85 92 98 100 98 93 96 99 97 93 92 80 67 55 59 82 100
24 22 16 18 28 23 25 34 45 41 46 40 25 32 68 51 54 60 71 76 66 66 72 75 82 90 93 92 96 99 100 99 97 94 100 98 98 99 85 72 54 58 74 96
25 29 20 22 29 25 27 29 42 48 54 49 29 44 73 48 53 58 59 75 68 70 75 85 96 98 95 93 98 100 100 100 99 98 100 100 100 98 98 86 96 82 86 83
45 27 20 23 24 23 31 35 30 50 42 62 47 76 57 54 63 68 74 72 83 77 79 89 96 98 94 98 99 100 100 100 99 99 99 100 100 97 100 96 80 100 92 97
38 66 28 22 22 23 27 24 46 54 81 61 38 87 92 88 88 86 88 90 88 83 84 91 95 96 96 99 100 100 100 100 100 99 100 100 100 99 99 99 95 97 97 90
33 69 36 24 32 28 37 41 46 50 57 72 79 90 82 92 93 85 86 91 92 93 92 96 95 98 100 98 100 100 100 100 100 100 100 100 100 100 100 99 100 99 99 100
34 49 64 41 23 24 26 31 38 58 54 71 87 93 73 75 76 75 81 88 93 95 96 97 97 95 98 98 99 100 100 100 100 100 100 100 100 100 100 98 100 100 99 98
46 58 65 47 34 34 33 36 40 46 56 75 82 87 64 65 73 72 86 84 93 92 94 94 95 94 97 97 99 99 100 99 100 100 99 100 100 100 100 100 100 100 100 100
56 57 68 87 93 63 59 50 46 54 90 84 86 92 75 74 80 77 72 76 86 88 95 95 94 96 97 98 98 99 99 99 98 98 100 100 100 100 100 100 100 100 99 99
48 88 65 62 61 55 59 70 63 62 67 86 86 83 76 76 82 76 66 63 61 70 71 80 90 92 92 92 94 98 99 97 95 98 100 100 100 99 100 98 97 99 95 98
45 84 96 87 61 58 71 94 83 64 65 72 66 82 67 62 66 71 67 59 61 62 66 71 72 78 88 87 87 86 87 94 94 94 95 98 100 99 100 100 100 100 100 100
58 69 82 69 51 56 87 92 87 61 52 57 75 73 62 65 73 77 70 64 64 62 60 80 84 81 82 85 82 87 84 89 91 95 96 96 96 97 98 98 99 100 100 100
56 71 83 67 75 88 85 55 50 48 47 48 57 60 54 66 71 71 65 66 64 60 56 65 77 76 81 78 78 79 82 85 92 92 95 95 94 93 94 95 96 97 98 99
32 66 84 73 59 82 70 53 51 52 60 48 52 53 56 62 72 84 66 62 57 53 49 48 50 53 60 69 68 71 83 81 82 92 92 97 95 95 97 97 96 93 95 98
31 58 71 67 65 59 82 52 50 49 86 50 50 55 58 59 84 93 70 69 56 45 46 46 46 47 47 52 58 58 63 74 74 72 75 76 86 94 96 97 98 99 94 94
74 85 82 77 64 68 64 64 60 86 89 51 50 54 55 66 80 74 64 66 51 43 43 45 47 48 48 47 51 52 49 50 50 56 59 59 65 73 82 90 90 92 93 92
68 68 76 70 68 78 66 76 96 79 58 54 58 68 76 75 74 76 74 78 45 40 40 42 44 47 48 48 50 53 52 44 46 51 54 54 54 56 64 70 80 79 85 86
72 53 87 81 87 76 94 92 71 58 79 72 72 62 65 73 81 80 79 71 40 36 36 37 38 42 46 49 52 54 55 50 46 48 54 55 56 52 58 64 76 81 77 78
53 46 81 74 80 84 100 98 92 84 93 84 71 61 65 75 73 73 66 45 36 35 33 33 33 34 39 44 50 56 59 55 52 51 55 57 58 56 56 64 70 85 86 83
53 49 68 91 82 77 96 99 98 98 94 82 64 54 56 57 53 42 38 37 35 33 33 35 37 38 42 47 52 57 62 61 60 58 59 65 64 62 60 65 73 86 86 86
51 63 74 92 80 72 93 100 96 96 96 77 61 52 45 44 44 43 39 36 35 36 36 37 43 47 48 53 61 66 68 70 73 69 67 68 70 69 68 68 69 76 83 90

GFSCGP_925_rhum_132.txt.gz
RH
25 34 40 32 31 27 28 26 22 21 19 20 22 20 41 55 58 63 64 64 60 59 55 58 61 63 65 67 69 71 74 73 76 78 83 84 85 81 60 55 61 66 76 72
32 41 29 26 27 31 29 23 26 25 21 22 22 36 55 54 59 63 66 67 65 64 62 62 64 67 70 73 77 80 80 80 82 86 88 90 89 86 88 56 55 68 62 79
36 34 24 25 29 31 26 24 24 26 28 29 29 36 59 53 55 59 63 64 66 69 70 67 66 71 75 79 82 84 89 92 90 92 96 95 95 96 92 84 68 65 71 71
31 25 27 28 29 26 33 22 24 33 41 49 35 59 61 60 68 69 72 75 74 72 69 66 70 76 81 83 85 92 92 92 95 94 94 95 93 91 92 96 88 75 62 64
35 31 31 34 30 23 26 26 31 33 40 46 42 66 62 61 73 80 78 78 75 72 73 74 76 80 84 84 90 93 96 95 97 99 100 97 97 90 86 92 98 82 72 62
37 30 32 32 26 25 25 31 38 41 47 75 48 55 79 89 89 80 79 78 77 75 76 78 79 83 81 86 91 96 98 99 98 100 100 100 98 92 87 91 97 90 86 81
35 33 26 24 32 28 28 46 75 77 84 74 44 60 90 85 81 82 84 83 81 81 85 85 86 87 85 87 92 97 99 98 98 100 100 100 100 100 100 97 95 97 90 82
50 60 32 31 27 32 36 44 70 75 80 78 44 61 91 78 70 71 72 80 76 85 82 86 88 90 90 93 96 100 100 100 100 100 100 100 100 100 99 96 99 94 94 95
53 52 36 26 29 27 35 45 35 59 62 88 80 87 75 72 78 83 84 75 86 83 84 89 91 90 91 97 100 100 100 100 99 100 100 100 100 100 100 100 99 99 97 91
53 68 38 36 31 30 30 30 55 80 77 91 85 91 95 94 95 91 93 92 93 90 90 90 91 92 92 98 100 100 100 100 100 100 100 100 100 100 99 100 99 100 99 99
53 70 52 39 40 43 41 45 57 64 80 90 96 88 88 91 96 96 93 90 96 96 94 92 90 94 91 93 96 97 99 100 100 100 100 100 100 100 99 100 100 100 100 98
47 70 81 53 38 38 39 49 52 86 75 88 93 90 88 91 87 81 86 85 94 93 92 88 90 91 90 90 94 99 99 100 100 100 100 100 100 99 99 100 100 100 100 100
52 79 89 54 53 70 78 64 54 66 75 84 89 84 87 80 81 76 78 93 94 91 89 90 87 88 89 87 91 87 99 100 100 99 99 99 99 99 100 100 100 100 100 100
55 75 80 81 85 85 88 79 89 85 94 89 90 95 95 91 93 78 76 89 91 91 89 89 88 86 87 82 86 82 84 93 98 99 99 99 99 99 99 100 100 100 100 100
56 87 79 73 68 67 69 70 76 92 81 90 82 91 93 91 85 74 78 79 75 85 78 83 90 83 83 80 78 80 80 84 86 90 97 99 99 98 99 100 100 100 100 100
57 79 92 68 65 74 78 70 72 77 74 82 75 87 81 81 75 75 78 69 70 73 75 74 83 74 76 76 79 82 80 83 84 82 86 94 97 98 99 99 100 100 100 100
64 78 98 80 58 71 92 83 86 78 72 69 86 77 83 83 74 73 77 70 69 68 72 80 87 80 74 71 72 81 80 77 86 82 77 75 92 97 97 100 100 99 100 100
69 72 85 90 68 90 63 68 71 70 63 72 78 81 76 78 78 80 73 71 67 67 69 70 63 65 64 60 61 69 70 76 81 85 83 73 70 86 93 97 100 100 98 99
53 77 96 88 83 74 72 69 71 76 71 69 77 82 82 81 82 86 71 71 73 65 60 56 54 56 57 58 59 64 73 72 77 85 89 87 80 76 83 91 94 99 99 96
49 57 86 97 86 85 78 73 64 59 92 67 73 83 87 88 94 94 80 71 70 55 54 53 54 56 58 60 60 64 70 74 76 79 80 84 78 82 89 89 88 84 89 94
63 77 79 84 85 76 75 74 70 86 80 71 68 75 82 92 91 87 74 72 69 52 53 53 54 58 58 60 62 69 72 71 71 70 74 78 86 86 82 87 88 84 85 79
61 71 75 84 92 80 86 75 80 82 87 82 78 72 82 88 90 79 79 82 50 49 50 50 53 57 54 56 63 71 76 73 72 72 74 75 79 88 82 82 84 80 84 85
75 68 87 84 84 93 96 95 83 75 87 95 89 82 83 92 95 84 85 68 44 42 45 48 53 52 48 54 62 76 81 76 73 80 85 81 77 83 86 89 90 87 81 89
97 70 92 90 93 96 98 95 90 83 90 86 82 88 94 94 91 78 68 48 41 41 46 52 54 56 55 48 60 80 86 85 80 79 88 89 86 82 85 88 93 93 91 94
78 74 90 94 96 94 91 98 94 87 86 87 84 85 87 82 69 64 43 40 43 50 54 56 60 55 61 54 64 81 84 90 84 75 84 85 86 85 76 79 90 100 100 100
73 86 88 88 86 84 88 90 94 94 89 85 89 88 75 72 80 46 43 44 50 56 57 61 64 63 59 49 54 80 85 94 89 75 74 74 81 75 80 78 66 76 95 98

GFSCGP_925_rhum_135.txt.gz
RH
26 34 37 33 31 28 32 33 34 27 20 22 23 26 59 61 67 72 72 71 69 67 62 62 64 68 72 75 78 81 84 88 91 90 90 90 90 90 87 84 56 54 52 60
32 40 29 28 30 34 36 39 38 25 23 24 26 38 62 59 67 71 74 76 74 71 66 64 65 71 76 82 84 86 91 90 89 91 94 93 94 94 96 97 90 55 54 69
32 29 24 28 31 33 36 38 29 28 30 31 30 45 70 63 66 65 70 71 71 73 73 70 71 76 82 84 86 90 88 90 93 90 94 97 95 93 92 93 95 91 90 78
29 26 30 33 35 33 40 29 28 28 40 48 34 60 64 70 76 72 75 79 80 76 74 74 77 81 85 84 84 86 90 91 92 94 95 97 96 91 92 90 90 91 98 96
33 31 31 33 32 28 34 26 31 34 41 45 45 65 60 71 77 80 81 79 81 79 82 83 82 84 87 88 86 90 92 92 96 97 98 99 99 98 91 89 90 90 93 90
34 30 33 35 30 30 27 32 37 51 52 73 43 52 66 83 89 83 80 82 82 81 84 82 82 86 89 87 89 92 96 99 98 99 100 100 100 100 99 95 85 84 93 96
37 34 29 28 31 31 30 41 69 73 87 74 50 65 74 87 83 82 87 89 86 85 82 88 88 92 88 91 95 97 99 96 98 100 100 100 100 100 100 99 97 96 87 95
50 57 33 29 29 31 39 41 64 80 80 70 49 60 80 78 75 79 76 79 82 87 87 89 90 94 92 94 98 99 99 96 99 100 100 100 100 100 100 100 100 100 96 95
53 52 38 30 30 30 34 47 39 57 63 89 78 85 86 76 82 84 85 82 93 91 90 91 91 92 92 94 98 100 99 98 100 100 100 100 100 100 100 100 100 100 100 99
45 69 40 38 32 28 35 33 74 84 92 85 86 92 88 95 91 92 96 92 92 90 87 89 89 92 91 94 95 95 99 100 100 100 100 100 100 100 100 99 100 100 100 100
54 66 51 42 40 53 53 53 59 60 77 87 96 87 88 88 91 96 95 91 95 93 91 91 88 90 90 90 92 91 97 100 100 100 100 100 100 100 100 100 100 100 100 100
47 73 85 59 42 40 48 60 62 98 74 94 94 89 85 88 89 90 92 92 93 93 91 89 87 89 88 89 88 87 90 93 98 100 100 100 100 100 100 100 100 100 100 100
54 72 87 62 62 67 78 76 89 100 98 97 97 87 87 86 89 83 92 92 93 92 87 88 86 88 86 89 87 84 86 89 90 98 100 100 99 100 99 98 100 99 100 100
53 75 72 77 71 80 84 63 67 81 97 84 90 82 98 93 95 88 91 91 93 92 90 90 89 84 79 81 87 82 83 86 82 81 94 99 98 99 99 99 98 98 99 100
60 84 82 80 72 68 69 71 66 76 80 92 76 86 84 89 94 88 84 84 79 85 77 85 91 86 80 79 84 82 80 84 79 71 76 92 97 98 99 98 97 97 98 100
59 78 91 88 64 61 68 69 70 70 72 82 79 83 80 87 84 85 81 75 73 75 73 76 83 81 81 79 80 82 82 84 81 77 73 79 83 93 97 99 97 97 98 98
68 78 94 72 61 64 80 75 74 78 76 75 86 68 88 88 82 86 82 72 70 74 71 78 85 78 78 76 76 84 82 84 86 84 78 77 84 81 88 95 93 94 98 100
74 76 84 81 82 91 62 68 70 79 68 66 76 87 80 80 84 84 76 75 71 73 68 72 66 65 65 64 66 72 82 85 87 94 87 84 83 87 82 86 92 94 94 98
62 75 90 93 81 67 60 70 73 83 78 71 82 87 88 86 84 91 77 72 69 72 65 60 60 62 63 64 66 70 77 85 88 91 98 93 89 88 88 87 89 89 91 95
57 64 74 97 92 95 64 71 64 65 90 73 80 88 89 84 94 94 83 77 72 60 55 57 56 57 61 66 68 71 80 86 92 89 93 94 92 90 92 91 89 84 84 88
76 86 96 96 94 81 68 69 68 88 77 73 73 78 83 86 89 89 82 83 59 55 55 52 52 56 60 66 72 78 83 84 86 86 84 84 92 93 91 88 88 86 85 85
61 85 92 89 96 86 78 71 79 80 86 80 75 75 80 92 83 81 83 76 55 53 51 50 47 51 53 60 75 84 88 83 83 82 83 86 89 94 89 87 91 94 91 88
72 66 82 70 76 92 88 91 83 77 85 88 85 81 85 80 83 85 84 69 53 47 50 50 46 47 50 63 80 90 90 80 78 82 87 90 83 89 98 100 99 97 96 94
85 79 98 94 92 93 95 95 87 83 90 85 78 82 86 91 78 73 60 53 45 46 51 49 43 48 55 72 84 90 88 74 72 82 87 88 95 84 87 99 100 100 97 96
86 96 97 96 92 88 91 92 94 90 84 82 81 86 91 83 62 49 57 63 63 51 55 52 47 51 58 66 81 88 85 78 70 74 83 80 79 80 68 65 92 97 99 96
74 91 92 89 81 83 87 92 89 92 90 82 85 94 93 71 66 69 81 68 54 57 59 55 52 56 56 55 78 83 85 78 72 77 80 79 76 66 61 67 69 77 95 93

GFSCGP_925_rhum_138.txt.gz
RH
29 32 36 31 30 26 30 36 39 33 28 23 26 26 62 67 71 75 76 77 74 72 64 65 68 73 78 82 84 87 87 87 90 90 87 87 89 92 92 91 93 97 93 79
32 36 28 28 32 36 38 42 45 36 28 26 30 33 64 64 71 76 79 81 79 75 71 69 72 77 83 87 89 86 85 88 87 87 90 90 90 90 88 89 91 95 98 96
33 28 25 28 33 37 40 44 43 38 28 34 34 44 74 68 72 72 75 75 77 81 80 77 76 80 87 90 87 85 87 90 92 92 94 96 94 93 92 86 87 91 96 96
30 26 29 32 35 33 43 33 35 33 40 52 35 57 57 78 82 78 80 84 86 85 82 81 81 84 91 86 87 88 89 91 94 95 95 97 96 93 96 99 96 90 88 92
31 28 29 32 30 31 37 27 33 35 44 47 46 67 62 77 85 80 83 83 86 85 87 85 86 88 87 86 87 92 91 92 94 94 95 100 99 99 100 100 100 96 91 84
32 28 31 35 32 33 30 33 39 59 56 73 45 51 55 87 78 80 81 85 86 84 84 83 83 89 88 90 91 92 94 94 93 97 95 100 100 100 100 99 99 97 94 94
38 35 31 31 32 32 33 45 69 71 87 67 51 64 56 84 84 81 88 88 87 85 88 88 88 91 92 92 96 96 97 96 96 97 98 97 96 100 99 100 99 100 98 97
49 48 36 30 30 34 35 44 64 74 87 69 54 68 70 78 77 77 77 88 84 87 88 90 91 91 93 95 96 98 96 97 99 99 96 100 98 100 100 100 100 100 100 100
57 54 37 32 32 31 34 49 40 64 64 90 76 64 89 81 86 86 86 85 89 88 90 92 89 88 87 97 93 95 97 98 98 98 100 100 100 100 100 100 100 100 100 100
41 68 42 41 34 30 35 37 62 90 95 94 80 92 80 96 92 95 95 95 90 87 88 91 88 84 84 89 88 89 94 96 99 100 100 100 100 100 99 98 99 100 100 100
50 68 52 46 42 46 51 55 69 74 82 96 93 86 84 88 90 91 94 95 93 94 91 92 85 78 81 84 89 88 92 94 90 97 100 99 100 99 98 98 99 100 100 100
48 70 81 57 44 59 53 60 79 95 93 93 96 89 91 84 86 87 94 90 93 93 91 90 83 80 80 84 92 87 90 89 82 84 99 99 98 99 99 98 100 99 99 100
51 68 84 58 56 56 73 78 88 92 96 92 98 87 86 82 86 87 94 92 92 93 88 90 84 84 83 83 90 88 87 86 80 79 89 99 98 99 98 98 99 99 99 100
57 71 68 80 71 78 85 69 64 76 97 87 75 65 74 93 94 92 90 90 92 90 92 93 89 85 79 79 88 88 86 84 79 76 77 90 100 100 98 98 97 96 98 97
66 89 85 81 79 80 78 77 72 72 71 89 69 70 57 83 90 89 87 85 85 83 79 91 95 87 82 82 85 87 87 87 81 77 78 83 86 95 99 97 97 96 96 96
63 82 91 90 69 74 75 71 68 62 65 73 66 68 73 88 91 89 82 79 76 69 70 78 78 81 84 84 86 88 89 91 88 83 83 81 85 81 93 94 97 97 96 96
69 77 93 78 62 74 77 73 69 68 71 69 81 67 90 93 86 86 84 73 71 68 69 81 86 83 79 80 81 88 87 90 94 90 86 87 86 88 87 87 91 98 100 98
76 78 80 87 80 93 60 60 67 74 72 73 74 82 80 83 86 84 78 76 74 68 68 75 75 73 72 72 75 81 84 91 94 97 95 91 88 91 88 89 91 92 98 100
67 77 90 95 85 66 58 52 80 82 74 72 75 92 93 89 83 90 77 71 76 74 69 68 65 66 69 72 76 78 85 91 94 97 100 99 95 95 97 94 93 91 94 99
67 69 81 96 95 91 66 67 64 68 84 72 81 91 90 82 94 92 85 81 72 62 60 60 58 62 67 74 76 80 88 91 97 94 96 97 95 94 96 99 95 88 87 94
79 91 94 89 92 82 63 68 66 88 71 73 78 84 84 84 89 89 84 79 62 58 55 50 50 59 70 75 75 83 88 90 90 89 90 91 99 96 96 93 94 90 85 83
69 89 96 90 94 88 75 72 80 76 82 78 77 81 80 92 89 85 79 73 59 57 52 42 46 55 66 77 78 83 87 83 81 84 84 89 91 98 99 96 95 98 93 89
76 74 82 78 79 84 84 93 85 76 77 82 81 80 86 86 85 86 80 73 56 52 48 40 43 58 73 83 86 90 81 76 79 83 84 88 84 84 92 92 90 96 96 94
73 73 85 81 79 86 90 94 84 79 83 82 80 84 80 87 79 78 76 63 53 51 44 40 44 54 72 84 89 88 76 71 76 80 83 79 82 66 78 98 99 99 97 94
76 87 93 94 86 86 87 91 90 90 84 84 82 81 78 73 67 60 69 80 58 54 47 43 46 52 71 82 86 81 70 72 70 75 82 81 70 73 71 79 92 92 96 90
90 92 94 83 77 81 83 93 88 92 91 90 89 90 71 60 57 72 90 94 58 59 48 48 49 54 66 79 82 81 70 63 68 72 81 75 68 66 74 68 56 60 82 82

GFSCGP_925_rhum_144.txt.gz
RH
21 24 21 23 22 21 22 23 21 18 16 22 21 19 21 32 34 37 36 36 37 38 40 44 48 50 55 57 61 63 64 67 68 63 65 66 66 68 69 70 73 75 75 79
24 22 21 20 21 23 23 24 23 20 20 23 20 19 18 29 32 33 35 37 39 38 38 43 45 47 53 56 62 63 64 66 68 68 71 71 74 74 75 75 77 80 86 95
27 24 21 21 23 26 22 24 23 23 21 19 23 19 26 32 36 40 41 41 40 42 44 42 44 45 49 54 61 64 65 67 70 76 68 72 70 71 71 74 76 78 88 92
24 20 22 24 23 21 25 20 22 24 24 24 23 21 20 29 39 45 42 43 44 43 43 43 45 45 47 54 59 63 67 68 69 76 75 77 75 79 79 82 81 85 90 95
24 23 24 25 22 22 24 23 25 26 27 30 23 32 24 30 32 40 43 47 47 46 46 45 47 47 46 51 56 60 66 67 71 76 79 79 82 81 88 87 83 85 87 93
23 20 21 22 23 24 24 26 28 32 29 34 24 26 20 28 35 38 46 50 49 46 45 46 49 50 48 51 58 61 62 65 70 76 80 84 87 88 93 88 87 85 84 93
23 23 22 25 26 25 22 28 32 32 43 33 31 32 27 28 43 47 61 54 49 48 47 46 52 59 56 54 61 66 64 64 71 77 82 86 89 92 94 95 96 93 92 94
22 33 26 25 24 26 28 27 33 46 41 34 24 33 34 47 49 49 53 71 49 50 52 56 85 63 59 60 76 75 68 66 73 79 86 85 87 93 95 98 98 98 99 100
30 30 25 26 24 23 25 29 30 42 35 44 33 26 54 51 55 58 58 58 62 52 56 73 83 64 66 87 92 76 70 70 78 81 89 88 88 90 95 96 97 97 100 98
32 43 29 27 28 24 25 23 34 39 65 44 25 34 57 85 64 73 100 86 80 57 58 70 90 74 71 88 92 83 68 76 74 77 90 91 94 92 92 96 98 98 98 99
31 48 30 30 29 25 27 26 33 37 36 52 58 47 54 91 96 100 100 100 92 85 93 78 90 86 80 83 86 88 88 86 91 81 83 94 100 99 96 96 98 100 99 98
35 39 34 28 21 31 33 32 40 57 49 58 86 74 53 54 56 61 100 100 98 79 93 88 86 84 93 82 89 91 93 87 85 92 90 85 99 100 100 100 99 100 98 97
40 34 34 24 34 41 40 44 44 46 61 67 82 78 51 50 54 54 90 100 96 91 89 92 90 85 90 84 94 87 83 86 87 79 84 86 90 94 96 98 100 97 98 97
35 31 37 32 32 34 43 38 36 40 80 62 58 59 42 36 41 52 62 80 86 89 86 90 88 88 86 85 76 65 61 61 66 68 70 78 80 84 92 97 100 100 100 99
36 45 43 39 36 38 40 42 40 38 40 54 60 45 35 32 35 36 48 73 72 76 66 74 81 85 80 66 59 51 51 52 48 48 52 58 60 66 80 88 95 95 98 97
47 60 73 79 44 42 48 64 49 46 44 45 42 44 32 33 50 63 65 66 61 60 56 51 53 55 61 50 49 51 52 55 50 48 49 50 49 49 58 68 76 78 94 93
48 47 58 48 31 40 52 65 68 43 32 36 46 36 32 43 52 63 66 59 56 52 52 54 64 62 61 56 57 58 54 58 57 52 51 50 49 50 53 56 62 63 64 86
42 46 44 48 42 65 41 29 28 32 33 32 32 31 29 44 59 63 58 56 54 49 51 67 80 71 68 61 60 60 58 59 68 68 59 57 55 56 57 60 61 65 66 68
39 44 57 63 47 38 33 29 32 37 41 34 44 41 55 58 60 71 58 51 51 48 51 58 67 83 78 70 61 63 71 65 70 80 85 74 72 68 70 71 68 66 74 73
43 52 65 59 76 58 30 27 40 41 55 48 49 53 59 57 66 64 61 53 52 51 49 48 50 52 54 60 60 63 77 80 77 77 84 89 82 86 84 80 78 74 71 79
67 66 79 67 64 45 28 41 45 70 61 54 51 52 56 60 64 65 56 60 52 45 43 44 43 42 46 50 53 53 59 78 73 63 59 71 80 81 86 83 79 80 79 78
44 48 63 54 62 66 42 56 56 54 57 55 54 55 66 58 66 63 62 65 46 41 40 36 39 44 48 44 44 45 50 52 52 54 47 49 58 66 68 74 72 72 72 70
49 34 39 42 38 40 46 42 40 52 48 49 65 54 58 67 78 84 81 62 45 36 29 27 33 45 50 46 42 45 52 51 51 43 41 42 49 52 52 55 60 60 62 63
41 36 54 53 51 36 34 37 51 52 64 58 56 58 60 72 73 72 64 53 40 28 22 24 34 40 48 52 51 51 52 50 46 40 38 40 43 39 46 48 51 58 60 59
40 45 51 57 47 46 44 46 53 60 64 62 57 58 63 63 62 56 52 46 41 30 24 26 32 39 46 49 50 53 52 47 42 40 38 40 43 43 40 53 59 62 73 71
40 47 64 67 46 47 53 55 64 69 67 60 61 63 58 56 55 52 52 60 43 31 26 24 32 40 48 50 52 51 48 46 43 39 43 52 50 51 49 48 49 69 82 86

GFSCGP_925_rhum_150.txt.gz
RH
19 19 21 16 13 17 18 17 13 10 8 10 13 14 12 16 17 19 19 23 25 27 29 33 37 40 41 45 48 47 49 52 54 58 60 60 63 61 60 61 65 67 72 74
20 20 15 13 15 16 16 16 14 12 10 13 15 16 11 10 19 18 20 22 23 27 28 32 35 39 41 45 47 46 49 50 55 62 60 64 66 62 62 64 69 71 75 79
24 16 13 16 16 16 16 17 16 15 13 11 12 13 12 11 17 16 18 21 25 28 30 32 34 38 39 44 47 47 49 48 56 63 65 72 68 68 67 71 74 77 78 81
18 13 14 16 19 14 18 14 16 16 18 19 11 21 12 16 19 22 27 28 29 31 33 33 35 37 37 42 46 49 48 47 56 64 71 74 75 74 73 76 78 79 80 81
19 16 19 21 16 14 17 14 18 18 16 18 17 21 14 13 23 28 29 31 33 34 35 35 37 38 38 42 46 49 46 45 56 64 72 75 78 78 79 80 81 82 83 84
18 13 15 15 13 15 15 16 17 20 23 36 24 23 19 21 24 28 29 33 36 36 36 35 38 39 41 46 49 48 45 44 55 63 71 76 80 82 83 83 85 88 87 89
21 17 15 13 17 14 19 23 36 34 37 37 19 24 21 31 32 31 40 37 37 38 37 37 42 46 46 50 55 51 46 44 50 59 70 79 83 86 87 89 90 92 94 93
24 28 16 15 17 16 21 20 32 31 37 32 21 24 30 33 32 31 37 46 37 42 41 53 65 50 51 59 75 63 53 49 55 57 66 77 86 90 90 92 95 96 98 98
22 18 16 16 15 14 14 19 17 31 31 41 27 19 35 35 40 41 46 47 43 42 52 63 62 53 70 64 87 70 61 60 64 63 63 69 82 90 91 94 97 98 99 99
22 32 16 18 18 17 18 13 29 35 49 44 26 29 58 70 48 50 93 60 59 45 47 84 81 60 78 70 85 80 68 77 70 73 68 71 76 79 85 93 95 96 97 93
20 50 22 18 24 22 15 22 25 23 30 46 52 50 48 78 95 90 100 100 86 75 96 71 97 70 67 81 82 63 72 71 77 73 69 73 79 82 87 92 93 94 94 96
20 30 36 22 16 14 15 21 24 47 38 44 65 66 40 35 56 51 84 100 100 78 100 89 84 77 80 72 83 70 73 74 71 56 65 71 77 82 90 86 87 92 94 94
26 30 35 25 18 13 19 21 20 25 38 54 75 76 31 28 27 29 50 99 99 100 100 100 87 76 80 77 61 70 72 67 71 62 52 50 57 64 73 77 71 81 92 93
24 25 24 39 27 22 31 30 20 27 67 56 55 46 33 28 28 26 28 95 97 98 98 88 93 90 76 75 69 58 49 52 54 52 54 52 54 58 65 72 70 73 86 87
21 33 25 20 18 21 22 23 25 25 27 38 43 33 28 26 27 29 44 80 89 86 80 78 81 82 84 62 50 41 44 43 41 43 44 48 51 55 60 64 67 73 77 83
24 50 55 61 34 28 30 40 26 27 31 34 32 34 25 22 32 40 55 56 68 69 62 61 65 78 59 43 38 41 46 48 43 44 46 48 49 51 54 59 65 67 72 77
35 38 47 54 30 24 36 54 51 28 24 26 34 27 39 49 39 50 50 52 53 55 62 70 63 53 45 41 44 44 46 53 52 48 50 52 54 55 57 57 62 66 70 73
31 38 43 51 39 57 37 19 20 23 22 20 19 18 38 56 42 52 52 49 53 56 54 62 63 53 50 48 50 48 46 57 69 68 61 61 59 62 63 64 62 66 72 78
27 37 49 58 47 32 24 20 23 27 29 22 24 31 34 34 39 59 50 46 49 46 51 61 73 61 54 50 50 55 57 57 67 87 85 72 72 70 71 72 71 66 76 82
26 35 48 50 54 51 31 20 24 27 42 35 37 42 41 39 61 72 67 60 49 44 48 58 65 61 53 51 50 62 75 72 60 72 83 79 81 80 79 76 74 75 73 79
42 41 58 61 58 39 22 20 27 48 53 44 39 38 45 58 62 64 56 53 46 44 44 47 48 44 42 43 46 53 65 70 50 46 51 63 62 66 70 72 70 72 75 70
45 52 59 54 60 62 24 30 41 36 33 29 31 40 50 56 64 63 63 62 45 39 38 39 36 33 34 35 36 36 37 39 40 38 42 43 44 44 50 58 61 63 65 70
41 33 48 41 46 47 39 48 40 32 32 37 42 42 48 62 82 82 82 65 43 36 37 33 32 32 32 30 30 32 35 34 32 32 33 35 33 37 39 47 56 64 66 66
29 23 41 44 37 27 31 28 28 29 37 36 41 48 51 67 73 74 66 58 42 34 32 29 30 32 31 31 30 35 35 34 32 30 32 33 35 36 41 42 57 65 66 68
49 46 41 47 39 32 28 31 37 41 40 37 44 46 49 58 72 66 62 53 41 32 28 26 29 31 34 34 37 38 36 33 30 31 35 38 41 39 43 55 58 71 72 76
34 41 64 73 51 48 45 44 43 43 43 42 43 49 48 48 60 57 58 50 40 31 28 26 26 31 31 34 36 38 36 34 32 35 45 53 51 51 52 54 74 74 81 86

GFSCGP_925_rhum_153.txt.gz
RH
30 36 38 30 26 20 20 22 23 20 13 14 18 17 25 24 23 27 34 35 37 42 40 38 42 42 46 48 47 48 50 56 60 63 68 67 69 68 68 70 75 77 80 83
36 41 26 18 18 19 21 22 23 18 14 15 18 20 18 21 22 26 33 34 40 41 42 42 42 42 46 47 48 49 48 58 62 67 69 73 73 73 74 79 81 83 80 79
42 34 22 18 20 21 21 21 23 22 18 17 16 18 15 12 22 26 32 33 37 41 44 44 43 42 45 48 49 49 47 57 63 69 68 71 78 81 83 85 86 85 85 84
34 23 21 20 21 20 26 18 20 23 27 32 16 27 18 19 28 35 37 40 44 43 44 43 43 44 45 48 50 48 48 55 67 70 72 77 84 85 86 86 87 89 89 86
33 22 22 22 22 18 21 18 20 22 26 26 23 32 22 18 39 41 42 41 48 47 48 51 43 45 47 48 50 47 46 54 60 70 73 78 84 87 86 88 90 91 91 89
30 20 17 19 16 16 18 20 24 25 30 55 30 34 41 39 42 42 42 47 45 48 48 47 42 47 50 47 52 49 46 50 54 69 76 79 85 87 91 91 92 94 94 96
29 26 18 16 18 16 18 26 53 60 65 51 25 31 51 44 36 40 53 51 51 49 51 58 56 55 54 49 62 58 50 57 57 66 74 77 86 88 92 95 97 97 98 96
40 42 23 17 20 22 25 31 60 44 64 50 28 33 70 50 48 48 50 58 48 55 67 72 61 62 61 41 67 63 58 63 63 66 72 76 81 86 90 96 96 97 99 99
33 31 18 18 17 18 19 25 20 37 43 66 49 37 51 46 54 56 54 55 59 62 78 77 62 76 61 44 69 67 55 68 65 69 69 76 80 80 86 89 89 94 96 100
29 37 21 20 19 19 22 20 44 67 56 58 46 38 78 72 64 66 84 66 66 69 82 82 71 84 72 61 55 68 49 58 63 69 59 68 64 58 64 78 86 94 96 95
31 52 34 22 30 29 27 32 28 36 47 67 77 71 62 70 81 74 79 94 76 80 92 86 80 79 78 73 63 54 53 52 53 59 54 55 60 65 64 62 78 87 91 92
26 49 48 30 19 19 21 24 30 74 52 76 80 79 48 58 63 75 81 97 100 86 96 94 81 81 76 81 81 63 67 64 58 54 52 55 62 67 70 68 71 75 82 86
31 44 59 36 27 21 22 22 24 34 61 69 83 80 46 41 46 37 80 93 98 99 99 98 85 88 66 78 56 69 63 61 63 53 50 53 60 67 74 73 70 74 83 71
28 37 43 58 41 30 30 32 46 52 90 78 72 58 46 37 39 38 77 96 98 98 98 95 97 88 78 76 62 62 60 57 65 62 54 53 57 65 72 74 74 71 70 86
29 36 27 40 42 35 33 36 39 36 41 51 57 46 43 36 40 72 90 95 95 95 89 90 96 92 81 76 59 54 45 46 49 51 52 52 55 61 68 72 70 73 72 69
30 65 51 67 40 38 41 47 42 35 35 37 37 41 34 47 53 67 83 88 91 87 81 80 82 88 83 71 55 46 48 45 44 48 52 53 55 57 62 65 72 75 77 80
42 63 68 70 40 41 55 54 46 34 32 36 45 37 54 64 66 71 67 72 77 76 74 75 82 82 69 44 44 48 52 54 54 55 57 58 61 63 64 66 71 79 79 78
51 49 61 70 58 76 52 28 26 30 30 28 27 45 61 57 69 69 60 67 65 67 74 82 79 60 47 47 48 51 57 60 64 66 68 67 68 71 71 70 72 78 87 86
34 49 70 76 71 52 41 29 29 34 35 27 47 49 47 48 73 69 65 59 68 70 72 72 56 51 50 50 53 55 65 68 61 68 79 73 72 76 76 71 75 72 86 96
35 46 68 78 73 73 48 27 30 31 59 48 50 49 57 59 81 91 73 66 65 65 69 66 60 54 51 53 54 59 64 69 72 64 71 73 72 68 76 76 69 67 72 97
51 59 63 69 72 64 34 25 34 63 67 50 45 50 55 70 79 80 74 65 54 61 67 68 65 59 54 55 58 65 63 56 62 61 59 60 70 66 66 67 72 71 73 71
58 65 65 70 75 77 34 34 52 56 52 49 44 52 63 69 76 78 72 66 51 52 60 58 58 54 50 48 52 62 57 49 42 44 46 42 43 54 53 58 63 66 66 78
66 62 69 55 68 55 50 54 46 43 42 44 55 59 66 78 84 83 82 70 50 44 45 44 39 37 38 38 40 41 42 40 36 38 37 36 37 43 53 52 38 56 66 63
45 39 68 64 53 55 52 46 42 48 45 52 56 58 55 82 89 89 79 67 46 40 38 34 34 33 31 31 35 35 36 34 32 34 34 32 39 38 42 49 59 60 62 69
70 62 65 66 53 47 39 45 53 50 48 46 54 54 55 82 82 75 64 58 42 37 33 33 35 33 34 35 37 36 34 31 31 34 38 42 42 47 50 56 66 72 79 78
49 55 83 84 58 61 58 52 50 49 49 49 50 59 54 80 78 71 70 60 45 35 30 34 34 34 35 37 37 36 34 30 33 40 45 52 52 54 59 64 75 83 88 95

GFSCGP_925_rhum_156.txt.gz
RH
27 38 42 35 34 29 28 24 25 22 18 15 18 19 33 29 28 34 44 45 50 49 49 46 48 48 48 48 49 49 58 61 59 61 58 59 69 75 76 81 82 83 83 80
34 42 34 31 28 28 24 24 25 21 17 18 18 18 27 32 26 30 40 46 50 51 53 52 51 49 50 50 50 49 62 64 65 64 63 63 74 79 82 86 88 90 89 83
40 37 32 33 28 24 24 25 23 23 21 19 18 21 15 20 25 35 35 44 46 50 53 53 55 54 51 52 49 53 64 66 66 67 61 58 71 80 87 88 90 93 91 90
40 32 35 36 34 26 29 21 22 23 29 33 18 34 18 21 42 37 42 47 50 49 50 52 57 57 53 51 47 55 58 67 69 68 67 68 84 90 88 90 92 92 94 96
43 26 24 26 23 21 25 20 21 21 25 27 22 26 24 41 51 50 51 51 52 52 53 56 57 54 54 51 48 50 50 57 69 70 71 67 82 86 88 90 95 96 98 97
41 29 27 20 18 18 20 21 23 24 29 44 30 31 40 48 50 50 48 49 49 54 52 55 56 52 52 53 51 50 50 56 68 70 68 66 80 86 87 89 94 99 98 98
42 40 31 22 20 18 20 31 50 56 62 46 27 35 53 59 42 44 56 51 48 49 51 59 62 59 54 56 60 55 55 60 68 71 70 70 73 76 90 91 97 99 100 98
48 56 32 25 22 23 26 34 58 59 65 45 34 39 70 57 54 52 51 57 50 59 57 69 71 63 52 60 64 59 55 62 68 68 70 70 65 72 83 84 92 91 97 92
43 39 22 20 19 19 23 37 31 42 49 65 52 61 55 53 57 56 57 55 63 69 74 81 72 66 55 62 63 54 50 60 65 58 54 53 44 55 72 76 76 76 79 83
38 36 25 21 20 21 21 25 40 69 52 53 52 49 81 74 69 68 78 69 72 74 78 85 87 74 60 54 64 47 43 56 61 50 52 55 62 53 58 64 71 70 68 72
38 47 30 24 28 28 28 36 32 35 58 66 76 68 65 74 78 74 84 85 75 80 85 86 92 79 71 57 51 46 45 52 54 51 56 63 69 67 61 64 62 54 59 71
30 49 46 32 23 23 26 31 35 69 50 76 78 77 51 62 62 68 73 83 87 83 91 91 92 88 82 77 54 54 55 55 54 53 57 66 73 71 68 62 67 68 55 67
31 48 59 49 30 24 24 24 30 50 66 64 72 73 54 53 59 64 75 81 99 99 94 95 94 87 86 68 56 64 63 63 56 53 54 62 72 75 74 72 55 63 57 65
34 47 49 56 43 38 37 31 45 62 88 78 79 62 47 42 38 41 76 94 98 98 98 98 96 82 75 72 58 66 69 67 71 57 54 59 70 75 77 76 72 57 56 68
35 47 28 40 43 37 38 37 36 36 45 63 62 54 48 40 40 62 95 92 97 98 96 91 96 95 80 74 70 67 62 67 69 63 60 60 69 77 75 76 76 67 56 70
41 60 50 61 41 39 40 52 41 43 41 43 45 49 40 54 79 86 91 92 91 94 87 82 87 88 85 75 70 53 47 52 54 56 58 59 62 70 78 79 80 77 66 62
50 68 61 52 38 41 54 68 51 36 34 35 42 36 65 71 70 74 88 87 88 88 86 88 88 87 73 74 59 53 49 50 54 59 63 64 64 67 72 76 83 85 77 68
55 61 66 69 59 74 44 40 35 37 34 33 31 56 61 66 67 68 62 84 82 81 82 85 88 87 68 53 51 55 56 58 61 65 68 70 71 72 72 73 84 96 85 76
46 57 74 77 66 54 49 36 31 35 39 33 53 60 62 72 68 68 63 68 76 76 77 85 81 68 51 50 56 57 62 60 70 72 72 72 75 73 71 71 73 94 94 88
44 52 70 81 74 76 54 32 27 32 60 51 52 60 66 72 76 83 74 69 79 78 78 78 70 53 53 58 58 61 66 59 51 74 66 68 69 77 78 74 74 85 100 95
62 72 70 76 69 63 41 30 32 59 54 56 49 56 66 67 68 67 80 74 72 70 69 64 58 57 57 58 58 66 69 62 56 59 63 68 66 72 70 73 74 79 83 93
49 64 78 76 77 73 38 38 45 49 57 56 55 60 62 65 78 86 80 77 70 71 69 63 61 57 57 54 55 55 61 57 57 57 54 51 70 65 59 63 66 67 74 78
62 62 70 60 67 51 54 49 43 47 48 54 58 59 70 80 84 87 80 73 68 70 71 67 63 58 58 56 55 54 48 48 52 54 42 42 54 51 44 35 49 52 46 56
51 49 71 61 53 51 58 53 50 51 52 55 61 68 76 77 86 84 76 67 57 60 59 56 55 55 54 56 55 41 46 46 43 39 37 40 43 48 48 58 61 62 63 67
68 59 69 72 58 47 52 49 62 63 58 58 61 63 68 78 89 83 72 61 45 48 44 42 41 41 38 39 45 40 40 36 35 34 35 40 42 46 54 62 70 74 78 75
58 64 82 83 64 60 57 59 61 68 62 58 64 62 67 79 88 82 76 58 42 42 40 40 40 36 39 37 36 36 36 32 34 41 46 48 48 52 59 69 83 85 91 96

GFSCGP_925_rhum_159.txt.gz
RH
28 38 45 38 36 31 30 34 34 26 19 17 20 20 23 34 33 46 56 56 58 58 56 56 54 52 51 50 53 60 59 62 55 49 45 57 75 70 71 76 77 80 80 78
34 44 32 35 36 37 39 40 34 24 20 21 22 22 22 35 31 37 49 54 57 62 63 62 58 54 52 52 57 64 63 64 63 58 54 63 65 74 74 77 80 85 85 84
40 35 31 34 40 41 35 35 29 26 21 21 18 24 18 30 29 36 44 46 53 59 62 64 63 59 55 53 62 65 66 66 65 60 48 40 49 63 74 78 84 87 87 84
39 29 33 34 42 42 49 27 26 26 29 36 20 33 21 23 39 40 45 56 59 59 59 62 66 63 55 58 60 62 65 62 62 57 49 52 75 84 87 87 87 93 88 81
40 36 42 43 40 35 39 28 27 26 28 28 26 30 26 43 48 47 50 55 58 59 59 64 63 60 57 54 52 53 55 57 60 57 53 56 66 79 80 83 87 99 94 83
44 32 32 31 22 19 22 23 30 37 33 42 29 25 28 51 49 57 56 55 57 56 56 58 58 61 60 53 53 53 52 61 65 60 54 54 56 69 73 77 86 89 90 84
57 54 42 31 36 20 21 29 48 55 61 43 30 35 27 60 57 51 61 58 56 53 56 58 60 64 66 63 55 53 55 65 67 62 56 51 54 65 69 77 77 67 83 89
53 56 41 36 41 41 30 31 51 50 66 47 37 39 63 62 52 51 53 59 52 54 53 60 67 62 68 63 54 54 57 68 67 55 48 34 43 55 63 67 64 63 79 87
50 44 27 26 28 31 32 38 31 48 52 68 54 59 60 62 64 62 61 59 59 58 69 78 72 62 68 61 57 53 57 64 54 48 42 46 42 44 50 55 56 60 73 84
44 54 26 20 20 21 25 28 41 67 56 54 52 50 73 79 74 71 78 67 71 66 69 84 83 67 68 63 54 44 48 55 48 49 53 59 55 51 50 44 44 59 70 78
39 52 37 26 28 29 30 34 38 46 52 63 73 68 60 75 77 72 80 84 72 73 84 90 88 71 65 62 49 38 48 51 50 55 64 67 65 61 54 59 54 52 68 80
42 54 55 40 27 24 25 35 38 68 49 77 78 63 51 66 66 64 72 83 80 78 92 92 90 83 71 54 47 44 53 54 54 59 67 72 72 69 60 48 52 48 64 79
32 47 54 45 33 28 28 26 36 55 64 54 70 71 51 58 63 64 64 71 89 92 93 96 97 93 84 70 58 59 56 55 54 56 65 74 78 74 72 63 49 49 62 74
32 49 52 56 46 48 53 38 46 55 81 58 71 50 51 56 61 62 53 80 95 98 94 96 97 94 87 78 62 67 68 65 56 54 60 70 79 76 77 70 56 50 66 73
53 98 82 56 42 37 36 38 52 58 55 61 60 64 48 46 56 48 74 95 98 98 96 92 94 92 86 75 58 68 70 69 71 61 60 65 81 77 78 77 69 55 66 79
54 89 74 67 54 51 47 56 47 42 42 49 45 50 41 44 81 89 90 91 93 95 94 90 83 88 81 82 73 70 70 77 73 68 66 67 77 80 78 83 77 65 58 74
84 96 95 94 52 48 70 65 55 39 38 34 35 28 70 80 77 81 87 88 89 93 92 89 87 87 87 76 72 60 61 64 66 64 64 66 71 79 82 86 87 76 69 60
99 97 99 93 79 95 64 42 34 36 31 30 32 51 66 68 68 71 80 82 85 87 91 93 93 88 79 73 60 53 54 57 62 65 66 67 69 73 79 87 95 86 76 71
82 89 96 91 72 54 47 39 37 39 39 33 37 51 66 73 67 66 67 73 79 84 89 89 84 81 70 70 57 56 60 61 65 69 70 72 71 74 75 78 96 95 86 80
94 78 71 81 71 76 54 34 29 34 51 45 58 67 75 69 77 82 69 70 80 82 83 87 82 76 64 63 58 61 67 68 72 73 71 72 75 70 72 75 88 100 92 90
90 97 92 84 86 68 43 32 32 55 58 57 59 63 74 73 66 60 79 77 80 82 83 82 75 64 57 61 60 64 62 53 53 64 64 70 77 75 78 76 83 100 100 98
59 77 92 90 91 87 42 34 47 50 52 59 59 67 70 62 74 83 84 86 78 76 76 72 64 67 62 63 62 67 69 55 52 62 66 69 72 70 72 70 84 87 89 70
90 66 73 70 75 52 52 47 44 58 63 57 60 60 66 74 83 90 88 86 77 73 68 64 63 67 65 62 59 66 64 57 56 61 62 64 78 59 60 65 65 57 61 63
49 51 71 59 52 47 50 54 50 51 52 59 61 67 74 70 78 89 86 82 76 69 65 65 64 66 69 63 58 45 50 54 56 62 50 55 72 48 47 53 56 59 62 67
66 62 67 72 58 50 53 59 55 54 56 60 63 69 70 72 82 86 77 72 68 67 65 67 65 64 63 61 58 49 46 47 52 49 43 51 52 48 57 65 70 70 72 71
62 62 82 80 59 58 56 60 69 73 68 64 66 71 70 75 81 83 75 64 61 61 57 57 58 59 58 58 59 55 45 47 46 42 42 43 48 51 60 72 84 87 86 99